Tracking 32523 objects as of 13-Dec-2025
HD Live streaming from Space Station
objects crossing your sky now

STARLINK-4728

Track STARLINK-4728 now!
10-day predictions
STARLINK-4728 is classified as:


NORAD ID: 53793
Int'l Code: 2022-111W
Perigee: 545.8 km
Apogee: 547.9 km
Inclination: 53.2 °
Period: 95.4 minutes
Semi major axis: 6917 km
RCS: Unknown
Launch date: September 11, 2022
Source: United States (US)
Launch site: AIR FORCE EASTERN TEST RANGE (AFETR)
Your satellite tracking list
Your tracking list is empty




NASA's NSSDC Master Catalog

Two Line Element Set (TLE):
1 53793U 22111W   25346.28374778  .00003500  00000-0  23784-3 0  9995
2 53793  53.2177 306.3023 0001469  88.4596 271.6564 15.08848220180492
Source of the keplerian elements: AFSPC